{"data":{"norad_id":69552,"intl_designator":"2026-135G","name":"STARLINK-37861","alt_names":[],"object_type":"PAYLOAD","status":"ACTIVE","operator":null,"country":"US","launch_date":"2026-06-15","launch_site_code":"AFWTR","launch_vehicle":null,"mission":null,"orbit_class":"UNKNOWN","rcs_meters":null,"size_class":null,"mass_kg":null,"dimensions":null,"purposes":["comms"],"wikipedia_slug":null,"has_3d_model":false,"image_url":null,"decayed_at":null,"tle_current":{"epoch":"2026-09-19T22:45:30.129696Z","epoch_age_seconds":69300,"freshness":"FRESH","line1":"1 69552U 26135G   26262.94826539  .00011682  00000+0  36351-3 0  9996","line2":"2 69552  97.2849 290.6111 0001127  92.3262 267.8110 15.33453848 14917","mean_motion":15.33453848,"eccentricity":0.0001127,"inclination_deg":97.2849,"raan_deg":290.6111,"arg_perigee_deg":92.3262,"mean_anomaly_deg":267.811,"bstar":0.00036351,"rev_number":1491,"period_min":93.905662819792,"perigee_km":464.74556939301,"apogee_km":466.28812897061,"semimajor_km":6843.6538491818,"source":"CELESTRAK","updated_at":"2026-09-20T09:00:44.242820Z"}}}